Location: Bégole
(43.1574°N, 0.3291°E)
Time: 03:13:04
(UTC+00:00)

NOAA 6 - Pass Details

Date: 28 January 2023
Orbit: 770 x 786 km, 98.7° (Epoch: 27 March)

Event Time Altitude Azimuth Distance (km) Brightness Sun altitude
Rises 17:43:04 0° 162° (SSE) 3,240 7.3 -7.3°
Reaches altitude 10° 17:45:22 10° 162° (SSE) 2,319 6.5 -7.7°
Maximum altitude 17:50:29 83° 74° (ENE) 791 4.0 -8.6°
Drops below altitude 10° 17:55:40 10° 348° (NNW) 2,347 6.5 -9.5°
Sets 17:58:00 0° 348° (NNW) 3,282 7.2 -9.9°
